NOAA 16 DEB, 41511

Orbit data source: Space-Track

NOAA 16 DEB, 41511 is space debris in SSO originally from a launch on Thu, 21 Sep 2000 UTC launched from the Air Force Western Test Range (AFWTR). Debris objects in space refer to the collection of defunct objects orbiting the Earth. Examples of debris include non-operational satellites, rocket bodies, and fragments generated from explosions, collisions, or faulty payload assembly.

Loading next visibility...
Identifier
41511, 2000-055MK
Orbit
SSO
Country
Flag of USUS
Related business
Manufacturer
Unknown
Mission
Spacecraft
Bus & Motor
Unknown
Mass
Unknown
Launch date (UTC)
2000-09-21 (26 years ago)
Launch vehicle
Unknown
Launch site
Air Force Western Test Range (AFWTR)
Object type
Payload
Rocket body
Debris
Shape & HBR
Unknown shape, 0.1 m
Radar Cross Section
Medium (>0.1 m² and <1 m²)

Expand to show TLE details & history
Last TLE update: 3 days ago

TLE from 3 days ago
0 NOAA 16 DEB
1 41511U 00055MK  26170.62454165  .00002140  00000-0  96643-3 0  9999
2 41511  98.6849 226.9404 0026558 106.6516 253.7581 14.22965913528273
Epoch: 2026-06-19T14:59Z
TLE epoch observation values (Epoch: 2026-06-19T14:59:20.398Z)
Latitude
-0.00001°
Longitude
94.25457°
Altitude
823.65 km
Speed
7.438 km/s
True Right ascension
15h 07m 45s
True Declination
0° 00' 00"
Sunlit
Object was in full shadow at epoch
Visualization orbit readout
Latitude
Unknown
Longitude
Unknown
Altitude
Unknown
Speed
Unknown
Apparent Right ascension
Unknown
Apparent Declination
Unknown
Sunlit
N/A
Visualization observer readout
Local Sidereal Time
21:37:36
Azimuth
Unknown
Elevation
Unknown
Doppler factor
Unknown
Orbital elements
Apogee altitude
831.59 km
Perigee altitude
793.396 km
Semi-major axis
7,190.63 km
Eccentricity
0.00266
Inclination
98.6849°
RAAN
226.9404°
Arg. of periapsis
106.6516°
True anomaly
253.46619°
Mean anomaly
253.7581°
Eccentric anomaly
253.61212°
Mean motion
3.55953 °/min
Orbital period
101.14 mins
BSTAR
0.00096643
Loading maneuver chart data...
Computing Atmospheric mass density...
Loading historical data...
Loading historical data...
Loading historical data...
Loading historical data...
Loading historical data...
Loading historical data...
Loading historical data...

Documentation

Showing up to 5 results
|